| time (UTC) | temp C | wind direction | speed KPH | gust KPH | rain 1hr cm | rain 24hr cm | rain mn cm | humidity % | barometer mb |
| 20260507190142 | 14 | 19 | 8.0 | 14.5 | 0.00 | 0.00 | 0.00 | 69 | 1015.8 |
| 20260507185644 | 14 | 338 | 6.4 | 14.5 | 0.00 | 0.00 | 0.00 | 69 | 1015.9 |
| 20260507185141 | 14 | 327 | 6.4 | 14.5 | 0.00 | 0.00 | 0.00 | 69 | 1015.9 |
| 20260507184639 | 14 | 338 | 4.8 | 12.9 | 0.00 | 0.00 | 0.00 | 70 | 1015.9 |
| 20260507184135 | 14 | 329 | 3.2 | 14.5 | 0.00 | 0.00 | 0.00 | 70 | 1016.0 |
| 20260507183635 | 14 | 355 | 4.8 | 14.5 | 0.00 | 0.00 | 0.00 | 70 | 1016.0 |
| 20260507183137 | 14 | 333 | 4.8 | 12.9 | 0.00 | 0.00 | 0.00 | 70 | 1016.0 |
| 20260507182131 | 14 | 281 | 3.2 | 9.7 | 0.00 | 0.00 | 0.00 | 71 | 1016.0 |
| 20260507181627 | 14 | 302 | 4.8 | 12.9 | 0.00 | 0.00 | 0.00 | 70 | 1016.0 |
| 20260507181130 | 15 | 350 | 6.4 | 16.1 | 0.00 | 0.00 | 0.00 | 70 | 1015.9 |
| 20260507175627 | 15 | 11 | 6.4 | 12.9 | 0.00 | 0.00 | 0.00 | 70 | 1015.7 |
| 20260507175127 | 15 | 336 | 6.4 | 12.9 | 0.00 | 0.00 | 0.00 | 70 | 1015.8 |
| 20260507174621 | 15 | 324 | 6.4 | 17.7 | 0.00 | 0.00 | 0.00 | 69 | 1015.8 |
| 20260507174122 | 15 | 300 | 8.0 | 17.7 | 0.00 | 0.00 | 0.00 | 69 | 1015.7 |
| 20260507173622 | 15 | 326 | 9.7 | 19.3 | 0.00 | 0.00 | 0.00 | 69 | 1015.7 |
| 20260507173121 | 15 | 341 | 11.3 | 19.3 | 0.00 | 0.00 | 0.00 | 70 | 1015.7 |
| 20260507172625 | 15 | 355 | 9.7 | 19.3 | 0.00 | 0.00 | 0.00 | 70 | 1015.7 |
| 20260507171120 | 15 | 355 | 8.0 | 16.1 | 0.00 | 0.00 | 0.00 | 70 | 1015.4 |
| 20260507170621 | 15 | 10 | 9.7 | 19.3 | 0.00 | 0.00 | 0.00 | 71 | 1015.3 |
| 20260507170114 | 15 | 350 | 9.7 | 19.3 | 0.00 | 0.00 | 0.00 | 71 | 1015.3 |
| 20260507165615 | 15 | 317 | 9.7 | 17.7 | 0.00 | 0.00 | 0.00 | 71 | 1015.3 |
| 20260507165115 | 16 | 323 | 9.7 | 22.5 | 0.00 | 0.00 | 0.00 | 71 | 1015.3 |
| 20260507164611 | 16 | 343 | 9.7 | 22.5 | 0.00 | 0.00 | 0.00 | 71 | 1015.2 |
| 20260507164108 | 16 | 0 | 11.3 | 22.5 | 0.00 | 0.00 | 0.00 | 71 | 1015.1 |
| 20260507163610 | 16 | 344 | 12.9 | 22.5 | 0.00 | 0.00 | 0.00 | 70 | 1015.1 |
| 20260507162608 | 16 | 346 | 9.7 | 19.3 | 0.00 | 0.00 | 0.00 | 70 | 1015.1 |
| 20260507160603 | 17 | 27 | 11.3 | 19.3 | 0.00 | 0.00 | 0.00 | 68 | 1015.0 |
| 20260507155101 | 17 | 331 | 14.5 | 24.1 | 0.00 | 0.00 | 0.00 | 67 | 1014.9 |
| 20260507154604 | 17 | 341 | 14.5 | 24.1 | 0.00 | 0.00 | 0.00 | 67 | 1015.0 |
| 20260507153604 | 18 | 331 | 11.3 | 24.1 | 0.00 | 0.00 | 0.00 | 66 | 1014.9 |
| 20260507153058 | 18 | 351 | 11.3 | 25.7 | 0.00 | 0.00 | 0.00 | 65 | 1015.0 |
| 20260507152557 | 18 | 24 | 11.3 | 25.7 | 0.00 | 0.00 | 0.00 | 65 | 1014.9 |
| 20260507152059 | 18 | 342 | 11.3 | 24.1 | 0.00 | 0.00 | 0.00 | 64 | 1015.0 |
| 20260507151559 | 18 | 28 | 11.3 | 24.1 | 0.00 | 0.00 | 0.00 | 64 | 1015.0 |
| 20260507151057 | 18 | 336 | 8.0 | 20.9 | 0.00 | 0.00 | 0.00 | 64 | 1015.0 |
| 20260507150553 | 19 | 341 | 8.0 | 19.3 | 0.00 | 0.00 | 0.00 | 63 | 1014.9 |
| 20260507150052 | 19 | 343 | 9.7 | 19.3 | 0.00 | 0.00 | 0.00 | 63 | 1015.0 |
| 20260507145550 | 19 | 350 | 9.7 | 17.7 | 0.00 | 0.00 | 0.00 | 63 | 1014.9 |
| 20260507145050 | 19 | 324 | 11.3 | 20.9 | 0.00 | 0.00 | 0.00 | 63 | 1014.9 |
| 20260507144552 | 19 | 342 | 9.7 | 20.9 | 0.00 | 0.00 | 0.00 | 62 | 1015.0 |
| 20260507144050 | 19 | 5 | 8.0 | 20.9 | 0.00 | 0.00 | 0.00 | 62 | 1014.9 |
| 20260507143551 | 19 | 311 | 9.7 | 20.9 | 0.00 | 0.00 | 0.00 | 62 | 1014.9 |
| 20260507143049 | 19 | 313 | 9.7 | 20.9 | 0.00 | 0.00 | 0.00 | 62 | 1015.0 |
| 20260507142555 | 20 | 30 | 9.7 | 24.1 | 0.00 | 0.00 | 0.00 | 61 | 1015.0 |
| 20260507142049 | 20 | 28 | 11.3 | 24.1 | 0.00 | 0.00 | 0.00 | 61 | 1014.9 |
| 20260507141547 | 20 | 342 | 9.7 | 19.3 | 0.00 | 0.00 | 0.00 | 61 | 1015.0 |
| 20260507141046 | 20 | 322 | 9.7 | 22.5 | 0.00 | 0.00 | 0.00 | 60 | 1015.0 |
| 20260507140542 | 20 | 0 | 11.3 | 22.5 | 0.00 | 0.00 | 0.00 | 60 | 1014.9 |
| 20260507140040 | 20 | 0 | 11.3 | 22.5 | 0.00 | 0.00 | 0.00 | 60 | 1015.0 |
| 20260507135542 | 20 | 324 | 11.3 | 24.1 | 0.00 | 0.00 | 0.00 | 59 | 1015.1 |
| 20260507134539 | 20 | 334 | 9.7 | 22.5 | 0.00 | 0.00 | 0.00 | 59 | 1015.1 |
| 20260507133538 | 20 | 29 | 11.3 | 20.9 | 0.00 | 0.00 | 0.00 | 59 | 1015.1 |
| 20260507133036 | 20 | 355 | 12.9 | 20.9 | 0.00 | 0.00 | 0.00 | 59 | 1015.1 |
| 20260507132537 | 21 | 5 | 9.7 | 20.9 | 0.00 | 0.00 | 0.00 | 58 | 1015.1 |
| 20260507132033 | 21 | 342 | 9.7 | 20.9 | 0.00 | 0.00 | 0.00 | 58 | 1015.1 |
| 20260507131534 | 21 | 347 | 11.3 | 20.9 | 0.00 | 0.00 | 0.00 | 58 | 1015.2 |
| 20260507131033 | 21 | 320 | 11.3 | 22.5 | 0.00 | 0.00 | 0.00 | 57 | 1015.1 |
| 20260507130531 | 21 | 336 | 11.3 | 22.5 | 0.00 | 0.00 | 0.00 | 57 | 1015.2 |
| 20260507130036 | 21 | 333 | 8.0 | 17.7 | 0.00 | 0.00 | 0.00 | 58 | 1015.1 |
| 20260507125532 | 21 | 5 | 9.7 | 20.9 | 0.00 | 0.00 | 0.00 | 57 | 1015.1 |
| 20260507125032 | 21 | 355 | 9.7 | 20.9 | 0.00 | 0.00 | 0.00 | 55 | 1015.1 |
| 20260507124535 | 21 | 9 | 9.7 | 20.9 | 0.00 | 0.00 | 0.00 | 54 | 1015.1 |
| 20260507124027 | 21 | 5 | 9.7 | 20.9 | 0.00 | 0.00 | 0.00 | 53 | 1015.1 |
| 20260507123527 | 22 | 0 | 9.7 | 19.3 | 0.00 | 0.00 | 0.00 | 52 | 1015.1 |
| 20260507123025 | 22 | 10 | 8.0 | 17.7 | 0.00 | 0.00 | 0.00 | 51 | 1015.1 |
| 20260507122527 | 22 | 329 | 6.4 | 19.3 | 0.00 | 0.00 | 0.00 | 50 | 1015.1 |
| 20260507122024 | 22 | 28 | 8.0 | 19.3 | 0.00 | 0.00 | 0.00 | 47 | 1015.0 |
| 20260507121524 | 22 | 5 | 8.0 | 17.7 | 0.00 | 0.00 | 0.00 | 46 | 1015.1 |
| 20260507121026 | 22 | 24 | 4.8 | 14.5 | 0.00 | 0.00 | 0.00 | 43 | 1015.1 |
| 20260507120526 | 22 | 288 | 6.4 | 16.1 | 0.00 | 0.00 | 0.00 | 41 | 1015.1 |
| 20260507120024 | 22 | 306 | 6.4 | 16.1 | 0.00 | 0.00 | 0.00 | 42 | 1015.1 |
| 20260507115524 | 22 | 320 | 3.2 | 16.1 | 0.00 | 0.00 | 0.00 | 42 | 1015.1 |
| 20260507115026 | 22 | 0 | 3.2 | 9.7 | 0.00 | 0.00 | 0.00 | 41 | 1015.1 |
| 20260507114525 | 22 | 351 | 3.2 | 12.9 | 0.00 | 0.00 | 0.00 | 40 | 1015.1 |
| 20260507114025 | 22 | 40 | 4.8 | 14.5 | 0.00 | 0.00 | 0.00 | 41 | 1015.1 |
| 20260507113015 | 22 | 293 | 1.6 | 8.0 | 0.00 | 0.00 | 0.00 | 42 | 1015.2 |
| 20260507111511 | 22 | 337 | 1.6 | 9.7 | 0.00 | 0.00 | 0.00 | 42 | 1015.4 |
| 20260507111013 | 22 | 83 | 3.2 | 12.9 | 0.00 | 0.00 | 0.00 | 42 | 1015.4 |
| 20260507110013 | 21 | 26 | 1.6 | 14.5 | 0.00 | 0.00 | 0.00 | 43 | 1015.3 |
| 20260507105509 | 21 | 294 | 3.2 | 14.5 | 0.00 | 0.00 | 0.00 | 42 | 1015.3 |
| 20260507105011 | 22 | 64 | 3.2 | 12.9 | 0.00 | 0.00 | 0.00 | 42 | 1015.5 |
| 20260507104009 | 22 | 15 | 3.2 | 9.7 | 0.00 | 0.00 | 0.00 | 40 | 1015.4 |
| 20260507101008 | 21 | 48 | 1.6 | 8.0 | 0.00 | 0.00 | 0.00 | 42 | 1015.8 |
| 20260507100510 | 21 | 11 | 1.6 | 8.0 | 0.00 | 0.00 | 0.00 | 42 | 1015.8 |
| 20260507100008 | 21 | 270 | 1.6 | 8.0 | 0.00 | 0.00 | 0.00 | 42 | 1016.0 |
| 20260507095506 | 21 | 42 | 1.6 | 6.4 | 0.00 | 0.00 | 0.00 | 43 | 1015.9 |
| 20260507095007 | 20 | 254 | 1.6 | 8.0 | 0.00 | 0.00 | 0.00 | 43 | 1016.0 |
| 20260507094507 | 20 | 222 | 1.6 | 9.7 | 0.00 | 0.00 | 0.00 | 43 | 1016.0 |
| 20260507094006 | 20 | 175 | 3.2 | 9.7 | 0.00 | 0.00 | 0.00 | 43 | 1016.2 |
| 20260507093004 | 20 | 200 | 1.6 | 9.7 | 0.00 | 0.00 | 0.00 | 44 | 1016.2 |
| 20260507092507 | 20 | 130 | 1.6 | 9.7 | 0.00 | 0.00 | 0.00 | 44 | 1016.2 |
| 20260507091503 | 20 | 34 | 0.0 | 6.4 | 0.00 | 0.00 | 0.00 | 46 | 1016.4 |
| 20260507091001 | 20 | 39 | 1.6 | 14.5 | 0.00 | 0.00 | 0.00 | 46 | 1016.4 |
| 20260507090505 | 19 | 38 | 3.2 | 14.5 | 0.00 | 0.00 | 0.00 | 46 | 1016.4 |
| 20260507090002 | 19 | 147 | 1.6 | 11.3 | 0.00 | 0.00 | 0.00 | 47 | 1016.4 |
| 20260507085500 | 19 | 115 | 1.6 | 8.0 | 0.00 | 0.00 | 0.00 | 49 | 1016.4 |
| 20260507084959 | 19 | 5 | 1.6 | 8.0 | 0.00 | 0.00 | 0.00 | 47 | 1016.5 |
| 20260507084455 | 19 | 86 | 3.2 | 8.0 | 0.00 | 0.00 | 0.00 | 48 | 1016.5 |
| 20260507083954 | 18 | 20 | 3.2 | 8.0 | 0.00 | 0.00 | 0.00 | 50 | 1016.5 |
| 20260507083455 | 18 | 203 | 1.6 | 8.0 | 0.00 | 0.00 | 0.00 | 51 | 1016.5 |
| 20260507082954 | 18 | 301 | 1.6 | 6.4 | 0.00 | 0.00 | 0.00 | 50 | 1016.6 |
| 20260507082451 | 18 | 322 | 1.6 | 6.4 | 0.00 | 0.00 | 0.00 | 50 | 1016.6 |
| 20260507081454 | 18 | 196 | 1.6 | 6.4 | 0.00 | 0.00 | 0.00 | 53 | 1016.7 |
| 20260507080952 | 18 | 167 | 1.6 | 6.4 | 0.00 | 0.00 | 0.00 | 53 | 1016.7 |
| 20260507080451 | 17 | 187 | 1.6 | 11.3 | 0.00 | 0.00 | 0.00 | 53 | 1016.8 |
| 20260507075950 | 18 | 90 | 1.6 | 11.3 | 0.00 | 0.00 | 0.00 | 51 | 1016.8 |
| 20260507075447 | 18 | 105 | 1.6 | 9.7 | 0.00 | 0.00 | 0.00 | 53 | 1016.8 |
| 20260507074447 | 18 | 34 | 1.6 | 11.3 | 0.00 | 0.00 | 0.00 | 54 | 1016.6 |
| 20260507073947 | 17 | 138 | 1.6 | 8.0 | 0.00 | 0.00 | 0.00 | 53 | 1016.5 |
| 20260507073445 | 17 | 175 | 3.2 | 8.0 | 0.00 | 0.00 | 0.00 | 53 | 1016.5 |
| 20260507072944 | 17 | 144 | 3.2 | 9.7 | 0.00 | 0.00 | 0.00 | 53 | 1016.5 |
| 20260507072444 | 17 | 163 | 3.2 | 9.7 | 0.00 | 0.00 | 0.00 | 53 | 1016.6 |
| 20260507071945 | 17 | 172 | 3.2 | 11.3 | 0.00 | 0.00 | 0.00 | 52 | 1016.5 |
| 20260507071445 | 17 | 144 | 3.2 | 11.3 | 0.00 | 0.00 | 0.00 | 52 | 1016.6 |
| 20260507070941 | 17 | 156 | 3.2 | 11.3 | 0.00 | 0.00 | 0.00 | 52 | 1016.7 |
| 20260507070440 | 17 | 150 | 3.2 | 11.3 | 0.00 | 0.00 | 0.00 | 53 | 1016.7 |
| 20260507065935 | 17 | 130 | 1.6 | 11.3 | 0.00 | 0.00 | 0.00 | 54 | 1016.8 |
| 20260507065435 | 17 | 130 | 1.6 | 6.4 | 0.00 | 0.00 | 0.00 | 53 | 1016.8 |
| 20260507064934 | 17 | 307 | 1.6 | 6.4 | 0.00 | 0.00 | 0.00 | 53 | 1016.7 |
| 20260507064431 | 16 | 336 | 1.6 | 6.4 | 0.00 | 0.00 | 0.00 | 53 | 1016.7 |
| 20260507063929 | 16 | 29 | 1.6 | 6.4 | 0.00 | 0.00 | 0.00 | 53 | 1016.8 |
| 20260507063430 | 16 | 27 | 1.6 | 6.4 | 0.00 | 0.00 | 0.00 | 54 | 1016.7 |
| 20260507062930 | 16 | 29 | 1.6 | 6.4 | 0.00 | 0.00 | 0.00 | 56 | 1016.7 |
| 20260507062429 | 16 | 18 | 0.0 | 4.8 | 0.00 | 0.00 | 0.00 | 57 | 1016.7 |
| 20260507061928 | 15 | 246 | 0.0 | 6.4 | 0.00 | 0.00 | 0.00 | 57 | 1016.6 |
| 20260507061422 | 15 | 246 | 1.6 | 6.4 | 0.00 | 0.00 | 0.00 | 57 | 1016.8 |
| 20260507060921 | 15 | 355 | 0.0 | 4.8 | 0.00 | 0.00 | 0.00 | 59 | 1016.8 |
| 20260507055911 | 15 | 355 | 1.6 | 4.8 | 0.00 | 0.00 | 0.00 | 59 | 1016.7 |
| 20260507054911 | 15 | 342 | 1.6 | 6.4 | 0.00 | 0.00 | 0.00 | 61 | 1016.6 |
| 20260507053911 | 14 | 5 | 1.6 | 6.4 | 0.00 | 0.00 | 0.00 | 64 | 1016.5 |
| 20260507053418 | 14 | 5 | 1.6 | 8.0 | 0.00 | 0.00 | 0.00 | 65 | 1016.5 |
| 20260507052911 | 14 | 0 | 1.6 | 8.0 | 0.00 | 0.00 | 0.00 | 67 | 1016.5 |
| 20260507052411 | 13 | 17 | 3.2 | 8.0 | 0.00 | 0.00 | 0.00 | 67 | 1016.6 |
| 20260507051910 | 13 | 5 | 3.2 | 8.0 | 0.00 | 0.00 | 0.00 | 68 | 1016.5 |
| 20260507051411 | 13 | 5 | 3.2 | 8.0 | 0.00 | 0.00 | 0.00 | 70 | 1016.5 |
| 20260507050909 | 13 | 5 | 1.6 | 6.4 | 0.00 | 0.00 | 0.00 | 72 | 1016.5 |
| 20260507050410 | 12 | 5 | 1.6 | 6.4 | 0.00 | 0.00 | 0.00 | 73 | 1016.5 |
| 20260507045909 | 12 | 5 | 1.6 | 6.4 | 0.00 | 0.00 | 0.00 | 75 | 1016.4 |
| 20260507045408 | 12 | 0 | 0.0 | 4.8 | 0.00 | 0.00 | 0.00 | 79 | 1016.3 |
| 20260507044904 | 12 | 355 | 0.0 | 4.8 | 0.00 | 0.00 | 0.00 | 81 | 1016.3 |
| 20260507044405 | 11 | 355 | 1.6 | 4.8 | 0.00 | 0.00 | 0.00 | 83 | 1016.2 |
| 20260507043905 | 11 | 355 | 1.6 | 4.8 | 0.00 | 0.00 | 0.00 | 84 | 1016.3 |
| 20260507043407 | 11 | 355 | 0.0 | 4.8 | 0.00 | 0.00 | 0.00 | 85 | 1016.3 |
| 20260507042905 | 11 | 355 | 0.0 | 4.8 | 0.00 | 0.00 | 0.00 | 86 | 1016.3 |
| 20260507042409 | 11 | 355 | 1.6 | 4.8 | 0.00 | 0.00 | 0.00 | 87 | 1016.3 |
| 20260507041906 | 11 | 355 | 1.6 | 4.8 | 0.00 | 0.00 | 0.00 | 88 | 1016.2 |
| 20260507041402 | 10 | 355 | 1.6 | 4.8 | 0.00 | 0.00 | 0.00 | 88 | 1016.2 |
| 20260507040903 | 10 | 355 | 3.2 | 4.8 | 0.00 | 0.00 | 0.00 | 89 | 1016.1 |
| 20260507035905 | 10 | 342 | 1.6 | 4.8 | 0.00 | 0.00 | 0.00 | 90 | 1016.1 |
| 20260507035405 | 9 | 342 | 3.2 | 6.4 | 0.00 | 0.00 | 0.00 | 90 | 1016.0 |
| 20260507034907 | 9 | 342 | 1.6 | 6.4 | 0.00 | 0.00 | 0.00 | 89 | 1015.9 |
| 20260507034404 | 9 | 342 | 1.6 | 4.8 | 0.00 | 0.00 | 0.00 | 89 | 1015.9 |
| 20260507033905 | 9 | 341 | 3.2 | 4.8 | 0.00 | 0.00 | 0.00 | 89 | 1015.9 |
| 20260507033402 | 8 | 341 | 1.6 | 4.8 | 0.00 | 0.00 | 0.00 | 89 | 1015.9 |
| 20260507032903 | 8 | 341 | 0.0 | 3.2 | 0.00 | 0.00 | 0.00 | 89 | 1015.8 |
| 20260507032406 | 8 | 341 | 0.0 | 1.6 | 0.00 | 0.00 | 0.00 | 89 | 1015.8 |
| 20260507031859 | 8 | 341 | 0.0 | 1.6 | 0.00 | 0.00 | 0.00 | 89 | 1015.7 |
| 20260507030859 | 8 | 341 | 0.0 | 1.6 | 0.00 | 0.00 | 0.00 | 89 | 1015.8 |
| 20260507030359 | 8 | 341 | 0.0 | 1.6 | 0.00 | 0.00 | 0.00 | 89 | 1015.7 |
| 20260507025901 | 8 | 340 | 0.0 | 0.0 | 0.00 | 0.00 | 0.00 | 89 | 1015.5 |
| 20260507025347 | 8 | 340 | 0.0 | 1.6 | 0.00 | 0.00 | 0.00 | 89 | 1015.4 |
| 20260507024844 | 8 | 340 | 0.0 | 1.6 | 0.00 | 0.00 | 0.00 | 89 | 1015.5 |
| 20260507024331 | 8 | 340 | 0.0 | 1.6 | 0.00 | 0.00 | 0.00 | 89 | 1015.4 |
| 20260507023823 | 8 | 340 | 0.0 | 1.6 | 0.00 | 0.00 | 0.00 | 89 | 1015.3 |
| 20260507023316 | 8 | 340 | 0.0 | 0.0 | 0.00 | 0.00 | 0.00 | 89 | 1015.3 |
| 20260507022812 | 8 | 340 | 0.0 | 0.0 | 0.00 | 0.00 | 0.00 | 88 | 1015.3 |
| 20260507021808 | 8 | 340 | 0.0 | 0.0 | 0.00 | 0.00 | 0.00 | 89 | 1015.3 |
| 20260507021309 | 8 | 340 | 0.0 | 0.0 | 0.00 | 0.00 | 0.00 | 88 | 1015.3 |
| 20260507020804 | 8 | 340 | 0.0 | 1.6 | 0.00 | 0.00 | 0.00 | 89 | 1015.3 |
| 20260507020304 | 8 | 340 | 0.0 | 1.6 | 0.00 | 0.00 | 0.00 | 89 | 1015.3 |
| 20260507015306 | 9 | 340 | 0.0 | 1.6 | 0.00 | 0.00 | 0.00 | 89 | 1015.3 |
| 20260507014802 | 9 | 340 | 0.0 | 1.6 | 0.00 | 0.00 | 0.00 | 88 | 1015.3 |
| 20260507014300 | 9 | 340 | 0.0 | 1.6 | 0.00 | 0.00 | 0.00 | 89 | 1015.3 |
| 20260507013802 | 9 | 340 | 0.0 | 0.0 | 0.00 | 0.00 | 0.00 | 89 | 1015.3 |
| 20260507013258 | 9 | 340 | 0.0 | 0.0 | 0.00 | 0.00 | 0.00 | 88 | 1015.3 |
| 20260507012751 | 9 | 340 | 0.0 | 0.0 | 0.00 | 0.00 | 0.00 | 89 | 1015.2 |
| 20260507012255 | 9 | 340 | 0.0 | 1.6 | 0.00 | 0.00 | 0.00 | 89 | 1015.2 |
| 20260507011751 | 9 | 340 | 0.0 | 1.6 | 0.00 | 0.00 | 0.00 | 89 | 1015.3 |
| 20260507010225 | 9 | 340 | 0.0 | 1.6 | 0.00 | 0.00 | 0.00 | 89 | 1015.2 |
| 20260507005727 | 9 | 340 | 0.0 | 1.6 | 0.00 | 0.00 | 0.00 | 89 | 1015.3 |
| 20260507005227 | 9 | 340 | 0.0 | 0.0 | 0.00 | 0.00 | 0.00 | 89 | 1015.3 |
| 20260507004722 | 9 | 340 | 0.0 | 1.6 | 0.00 | 0.00 | 0.00 | 88 | 1015.3 |
| 20260507004207 | 9 | 340 | 0.0 | 1.6 | 0.00 | 0.00 | 0.00 | 89 | 1015.3 |
| 20260507003726 | 9 | 340 | 0.0 | 0.0 | 0.00 | 0.00 | 0.00 | 89 | 1015.3 |
| 20260507003206 | 9 | 340 | 0.0 | 0.0 | 0.00 | 0.00 | 0.00 | 89 | 1015.3 |
| 20260507002207 | 9 | 340 | 0.0 | 3.2 | 0.00 | 0.00 | 0.00 | 89 | 1015.4 |
| 20260507001207 | 9 | 340 | 0.0 | 3.2 | 0.00 | 0.00 | 0.00 | 89 | 1015.4 |
| 20260507000715 | 9 | 340 | 0.0 | 1.6 | 0.00 | 0.00 | 0.00 | 89 | 1015.4 |
| 20260507000207 | 10 | 340 | 0.0 | 1.6 | 0.00 | 0.00 | 0.00 | 89 | 1015.4 |
| 20260506235716 | 10 | 340 | 0.0 | 1.6 | 0.00 | 0.00 | 0.00 | 89 | 1015.5 |
| 20260506235205 | 10 | 340 | 0.0 | 1.6 | 0.00 | 0.00 | 0.00 | 89 | 1015.5 |
| 20260506234713 | 10 | 340 | 0.0 | 1.6 | 0.00 | 0.00 | 0.00 | 89 | 1015.7 |
| 20260506234145 | 10 | 340 | 0.0 | 1.6 | 0.00 | 0.00 | 0.00 | 89 | 1015.7 |
| 20260506232119 | 10 | 340 | 1.6 | 4.8 | 0.00 | 0.00 | 0.00 | 89 | 1015.9 |
| 20260506231701 | 10 | 340 | 1.6 | 6.4 | 0.00 | 0.00 | 0.00 | 89 | 1015.8 |
| 20260506230703 | 10 | 340 | 1.6 | 6.4 | 0.00 | 0.00 | 0.00 | 89 | 1015.9 |
| 20260506230110 | 10 | 340 | 1.6 | 8.0 | 0.00 | 0.00 | 0.00 | 89 | 1015.8 |
| 20260506225702 | 10 | 342 | 3.2 | 11.3 | 0.00 | 0.00 | 0.00 | 89 | 1015.8 |
| 20260506225104 | 10 | 5 | 4.8 | 14.5 | 0.00 | 0.00 | 0.00 | 88 | 1015.7 |
| 20260506224655 | 10 | 333 | 6.4 | 14.5 | 0.00 | 0.00 | 0.00 | 88 | 1015.8 |
| 20260506224108 | 10 | 343 | 4.8 | 9.7 | 0.00 | 0.00 | 0.00 | 89 | 1015.8 |
| 20260506223656 | 10 | 347 | 3.2 | 9.7 | 0.00 | 0.00 | 0.00 | 89 | 1015.8 |
| 20260506222654 | 10 | 342 | 1.6 | 6.4 | 0.00 | 0.00 | 0.00 | 88 | 1016.0 |
| 20260506221102 | 10 | 329 | 3.2 | 8.0 | 0.00 | 0.00 | 0.00 | 88 | 1016.1 |
| 20260506220648 | 10 | 332 | 3.2 | 6.4 | 0.00 | 0.00 | 0.00 | 88 | 1016.1 |
| 20260506215646 | 10 | 303 | 1.6 | 4.8 | 0.00 | 0.00 | 0.00 | 88 | 1016.2 |
| 20260506215040 | 10 | 302 | 1.6 | 4.8 | 0.00 | 0.00 | 0.00 | 88 | 1016.2 |
| 20260506214641 | 10 | 302 | 1.6 | 4.8 | 0.00 | 0.00 | 0.00 | 88 | 1016.3 |
| 20260506214019 | 10 | 302 | 1.6 | 6.4 | 0.00 | 0.00 | 0.00 | 88 | 1016.4 |
| 20260506213642 | 11 | 304 | 3.2 | 6.4 | 0.00 | 0.00 | 0.00 | 88 | 1016.4 |
| 20260506212632 | 11 | 325 | 3.2 | 6.4 | 0.00 | 0.00 | 0.00 | 87 | 1016.5 |
| 20260506211636 | 11 | 310 | 1.6 | 6.4 | 0.00 | 0.00 | 0.00 | 87 | 1016.5 |
| 20260506210959 | 11 | 315 | 3.2 | 6.4 | 0.00 | 0.00 | 0.00 | 87 | 1016.5 |
| 20260506210635 | 11 | 309 | 3.2 | 6.4 | 0.00 | 0.00 | 0.00 | 87 | 1016.5 |
| 20260506205959 | 11 | 297 | 3.2 | 8.0 | 0.00 | 0.00 | 0.00 | 87 | 1016.5 |
| 20260506205629 | 11 | 308 | 1.6 | 8.0 | 0.00 | 0.00 | 0.00 | 87 | 1016.5 |
| 20260506204959 | 11 | 290 | 1.6 | 6.4 | 0.00 | 0.00 | 0.00 | 87 | 1016.5 |
| 20260506203626 | 11 | 314 | 3.2 | 8.0 | 0.00 | 0.00 | 0.00 | 86 | 1016.5 |
| 20260506201922 | 11 | 340 | 4.8 | 16.1 | 0.00 | 0.00 | 0.00 | 86 | 1016.4 |
| 20260506201625 | 11 | 285 | 6.4 | 16.1 | 0.00 | 0.00 | 0.00 | 86 | 1016.4 |
| 20260506200919 | 11 | 345 | 8.0 | 16.1 | 0.00 | 0.00 | 0.00 | 85 | 1016.4 |
| 20260506200618 | 11 | 355 | 8.0 | 14.5 | 0.00 | 0.00 | 0.00 | 85 | 1016.4 |
| 20260506195917 | 11 | 332 | 8.0 | 14.5 | 0.00 | 0.00 | 0.00 | 85 | 1016.3 |
| 20260506195619 | 11 | 355 | 8.0 | 14.5 | 0.00 | 0.00 | 0.00 | 85 | 1016.3 |
| 20260506194917 | 11 | 17 | 9.7 | 16.1 | 0.00 | 0.00 | 0.00 | 85 | 1016.4 |
| 20260506194621 | 11 | 17 | 8.0 | 16.1 | 0.00 | 0.00 | 0.00 | 85 | 1016.4 |
| 20260506193918 | 11 | 355 | 6.4 | 14.5 | 0.00 | 0.00 | 0.00 | 85 | 1016.4 |
| 20260506193614 | 11 | 0 | 4.8 | 14.5 | 0.00 | 0.00 | 0.00 | 85 | 1016.4 |
| 20260506192916 | 11 | 313 | 6.4 | 19.3 | 0.00 | 0.00 | 0.00 | 84 | 1016.4 |
| 20260506192614 | 11 | 26 | 9.7 | 19.3 | 0.00 | 0.00 | 0.00 | 84 | 1016.4 |
| 20260506191916 | 11 | 327 | 11.3 | 19.3 | 0.00 | 0.00 | 0.00 | 84 | 1016.4 |
| 20260506191615 | 12 | 323 | 11.3 | 20.9 | 0.00 | 0.00 | 0.00 | 84 | 1016.4 |
| 20260506190914 | 12 | 355 | 11.3 | 20.9 | 0.00 | 0.00 | 0.00 | 84 | 1016.4 |
| 20260506190615 | 12 | 25 | 9.7 | 17.7 | 0.00 | 0.00 | 0.00 | 83 | 1016.5 |